Temperature
24 23 23 23 23 22 22 23 23 24 23 24 24 23 22 21 20 19 18 18 17 17 16 15 15 14 14 13 13 13 12 12 11 11 11 11 11 11 11 11 11 11 11 11
23 22 22 23 23 22 22 23 23 23 23 25 23 22 21 21 20 19 19 18 18 17 16 16 15 14 14 13 13 13 12 12 12 11 11 11 11 11 11 11 11 11 11 11
24 22 22 23 24 23 23 23 23 23 24 24 23 22 22 21 20 20 19 18 17 17 17 16 16 15 14 14 13 13 12 12 12 11 11 11 11 11 11 11 11 11 11 11
24 23 22 24 23 23 23 24 24 23 24 23 22 21 21 20 20 20 19 18 17 17 16 16 15 15 14 14 13 13 12 12 12 12 11 11 11 11 11 11 11 11 11 11
23 23 24 24 23 23 23 24 24 24 23 22 21 21 22 20 20 19 19 18 17 17 16 16 15 15 14 14 14 13 13 12 12 12 12 11 11 11 11 11 11 11 11 11
22 23 23 24 23 22 23 24 24 23 23 22 22 24 23 20 19 19 18 18 18 17 16 16 15 15 14 14 14 13 13 12 12 12 12 12 11 11 11 11 11 11 11 11
22 23 24 23 21 21 23 24 22 22 22 22 22 23 21 19 19 19 19 18 18 17 16 16 15 15 15 14 14 13 13 13 12 12 12 12 12 12 11 11 11 11 11 11
22 23 24 21 22 23 23 21 21 21 21 20 20 20 19 19 19 19 19 18 18 17 17 16 16 15 15 15 14 14 14 13 13 12 12 12 12 12 12 11 11 11 11 11
24 23 21 19 20 19 18 19 19 19 19 19 19 19 19 18 18 18 18 18 18 17 17 16 16 16 15 15 14 14 14 13 13 13 12 12 12 12 11 11 11 11 11 11
22 22 19 17 17 16 17 17 18 18 18 18 18 18 18 18 18 18 18 18 18 17 17 16 16 16 15 15 15 14 14 13 13 13 13 12 12 12 11 11 11 11 11 11
22 21 19 17 16 15 16 16 17 17 18 18 18 18 18 18 18 18 18 18 18 17 17 16 16 16 16 15 15 14 14 14 13 13 13 13 12 12 12 12 11 11 11 11
23 21 21 19 15 15 15 16 16 17 17 17 18 17 17 17 17 17 17 17 17 17 17 16 16 16 15 15 15 14 14 14 14 13 13 13 13 12 12 12 12 12 12 11
18 16 16 15 15 15 15 15 16 16 17 17 17 17 17 17 17 17 17 17 17 16 16 16 16 16 15 15 15 15 14 14 14 13 13 13 13 12 12 12 12 12 12 12
14 15 15 14 14 14 15 15 15 15 16 16 16 16 16 16 16 16 16 16 16 16 16 15 15 15 15 15 15 15 15 14 14 14 14 13 13 13 12 12 12 12 12 12
14 14 14 13 13 14 14 14 14 14 14 15 15 15 15 15 15 15 15 15 15 15 15 15 15 15 15 15 15 15 15 14 14 14 14 13 13 13 13 12 12 12 12 12
13 13 13 13 13 13 13 13 13 13 13 14 14 14 14 14 14 14 14 14 14 14 14 14 14 14 14 14 14 14 14 14 14 14 14 13 13 13 13 13 12 12 12 12
13 12 12 12 12 12 12 12 12 12 12 12 12 12 13 13 13 13 13 13 13 12 12 13 13 13 13 13 13 13 14 14 14 13 13 13 13 13 13 13 13 12 12 12
13 13 13 12 12 11 11 11 11 11 11 12 11 12 12 12 12 12 11 11 11 11 11 11 12 12 12 12 12 12 12 12 12 12 13 13 13 13 13 13 13 12 12 12
11 11 11 11 11 11 10 10 10 10 10 10 10 11 11 10 10 10 10 10 10 10 10 10 10 10 10 11 11 11 11 11 11 11 12 12 12 12 12 12 12 12 12 12
10 10 10 10 9 10 10 9 9 9 9 9 9 9 9 9 9 9 9 9 9 9 9 9 9 9 9 10 10 10 10 10 10 10 11 11 11 11 11 12 12 12 12 12
9 9 9 9 9 9 9 9 9 9 9 9 8 8 8 8 8 8 8 8 8 8 8 8 8 8 8 9 9 9 9 9 9 9 9 9 10 10 10 11 11 11 12 12
8 8 8 8 8 8 8 8 8 8 8 8 8 7 7 7 7 7 7 7 7 7 7 7 7 7 8 8 8 8 8 8 8 8 8 8 8 9 9 9 10 10 11 11
8 8 7 7 7 7 7 7 7 7 7 7 7 7 7 7 6 6 6 6 6 6 6 6 7 7 7 7 7 7 7 7 7 7 7 7 7 7 7 8 8 9 9 10
7 7 7 7 7 7 6 6 6 6 6 6 6 6 6 6 6 6 5 5 6 6 6 6 6 6 6 6 6 6 6 6 6 6 6 6 6 6 7 7 7 7 8 8
7 7 6 6 6 6 6 6 6 6 6 6 5 5 5 5 5 5 5 5 5 5 5 5 5 5 5 5 5 5 5 5 5 5 5 5 5 5 6 6 6 7 7 7
6 6 6 6 6 6 6 6 5 5 5 5 5 5 5 5 5 5 5 5 5 5 5 4 4 4 4 4 4 4 4 4 5 4 4 4 4 5 5 5 5 6 6 7
6 6 6 6 6 5 5 5 5 5 5 5 5 5 5 5 4 4 4 4 4 4 4 4 4 4 4 4 4 4 4 4 4 4 4 4 4 4 4 4 4 5 5 5
Wind_Speed
4 1 3 6 8 11 12 10 8 8 10 12 9 7 6 4 4 5 6 6 6 6 5 4 3 3 3 3 4 4 5 6 7 8 8 8 9 9 9 9 9 8 8 8
5 4 6 9 10 12 12 11 12 13 12 7 5 4 4 4 4 5 5 5 5 5 5 4 4 3 2 3 3 4 5 6 6 7 8 8 8 9 9 9 9 8 9 8
5 3 5 9 10 12 9 10 9 8 5 5 6 5 5 4 4 5 5 4 5 5 5 4 3 2 2 2 2 3 4 5 5 6 7 8 8 8 8 8 9 9 9 9
3 4 6 1 3 4 8 7 9 9 8 7 7 6 5 4 5 4 4 4 4 4 4 4 3 2 2 1 2 3 4 4 5 6 6 7 7 8 8 7 8 8 9 9
4 5 5 2 4 5 5 2 3 5 5 4 4 4 2 1 3 3 3 3 3 4 4 4 3 3 3 2 2 2 3 4 4 5 6 6 7 7 7 7 7 7 7 8
5 4 3 3 4 2 4 3 2 2 3 2 3 3 2 3 0 1 2 2 3 4 4 4 4 4 4 3 3 3 3 3 3 4 5 5 6 6 6 6 6 6 7 7
8 6 4 2 3 4 4 2 3 2 2 2 3 4 4 2 1 1 2 3 4 4 5 4 4 5 5 4 4 3 3 3 3 3 4 4 4 4 5 5 5 6 6 6
6 7 4 4 5 4 2 3 3 3 3 3 4 4 3 2 1 1 2 3 4 4 4 4 5 6 6 5 4 4 4 4 4 4 3 3 3 4 4 4 4 5 5 5
5 2 4 2 1 2 4 4 4 4 3 3 3 2 2 2 1 1 2 3 3 4 4 4 5 6 7 5 5 5 5 5 5 4 4 4 4 4 3 3 3 4 4 4
4 4 3 1 1 2 4 5 5 4 3 2 2 2 2 1 1 0 1 2 3 4 5 5 5 6 7 6 5 6 7 6 5 5 5 4 4 4 4 4 3 3 4 4
6 4 5 4 1 2 2 2 1 1 1 1 1 2 2 2 2 1 1 1 2 4 5 5 4 5 6 6 7 8 8 7 7 6 6 5 5 4 5 4 3 4 4 4
5 5 5 4 2 2 1 2 2 2 4 4 3 3 3 3 3 2 2 1 1 3 4 5 4 5 5 5 7 9 8 8 7 6 6 6 6 5 7 8 5 7 7 7
2 3 2 3 2 1 2 2 3 4 4 4 5 4 4 4 4 4 3 3 3 3 4 5 4 5 5 5 7 9 9 9 7 7 7 7 6 6 6 7 11 11 10 10
5 5 5 5 3 2 3 3 4 6 6 6 5 5 5 5 5 5 5 5 4 4 4 5 5 6 6 6 6 8 9 9 9 8 8 8 8 7 7 7 6 6 9 12
8 6 5 5 5 4 4 4 5 6 6 7 6 6 6 6 6 6 6 6 5 5 6 6 6 7 8 7 7 8 8 7 8 8 9 9 9 8 8 9 8 8 7 7
10 8 9 8 7 6 5 5 6 6 6 6 7 7 6 6 6 7 7 7 7 7 7 8 8 9 9 8 8 7 7 8 9 9 9 9 9 10 9 9 9 9 9 8
14 12 11 10 9 7 6 6 6 6 6 6 6 6 6 6 7 8 8 8 7 7 9 9 10 11 10 9 9 7 8 8 7 9 9 10 10 10 10 10 10 10 10 9
10 10 10 11 10 9 8 7 6 6 6 6 6 6 7 8 8 8 8 8 8 8 10 11 12 12 10 10 9 8 8 8 7 8 8 9 10 10 11 11 12 12 11 10
12 12 11 11 9 8 8 7 6 6 6 5 6 7 7 7 7 7 8 8 9 10 12 13 14 12 11 12 12 8 8 9 9 8 8 9 9 10 11 11 12 12 11 11
13 13 12 11 10 8 8 7 6 6 5 5 6 6 7 7 7 7 7 8 8 9 11 13 13 12 12 13 12 9 9 9 9 9 8 8 9 9 10 11 12 12 12 12
14 14 12 11 10 8 7 6 6 6 5 5 6 6 6 6 7 7 7 7 9 11 12 11 10 11 12 13 12 9 9 9 9 9 9 9 9 10 10 10 11 11 11 11
14 12 12 10 9 8 6 6 5 5 5 5 5 5 5 6 6 6 7 6 8 12 10 9 10 13 16 14 10 10 10 10 10 9 9 9 10 10 10 11 11 11 11 11
12 11 11 9 8 7 6 5 5 4 4 4 3 4 4 4 5 5 6 7 8 12 10 9 13 17 18 11 9 10 11 11 10 10 10 10 10 10 10 11 10 10 10 10
11 10 9 8 8 7 6 5 4 3 2 2 1 2 2 3 3 4 5 6 9 11 9 10 14 17 15 10 10 10 10 11 11 11 11 10 10 10 10 10 10 10 10 12
10 10 9 8 7 5 5 4 4 3 2 1 1 1 2 2 4 5 6 7 9 10 9 10 13 14 11 10 10 11 10 10 11 11 11 11 11 11 11 10 10 11 10 10
9 8 7 7 5 4 4 4 3 3 2 2 1 2 2 3 4 5 5 7 9 9 9 9 10 10 10 10 11 11 11 11 11 10 11 11 12 12 11 11 13 11 10 10
8 7 6 5 5 5 5 4 4 3 3 2 2 3 3 4 4 5 6 7 7 8 8 8 9 9 9 10 10 11 11 11 11 11 11 11 11 11 12 13 11 11 10 10
Wind_Direction
259 219 217 230 214 206 221 244 266 283 291 302 314 312 300 280 253 240 236 236 239 240 246 250 266 288 311 323 332 339 347 352 356 354 355 355 357 358 360 1 359 357 355 357
227 216 232 246 239 225 232 246 256 274 286 298 312 296 284 267 247 245 242 238 238 238 239 243 252 268 283 302 327 336 345 354 355 352 357 357 357 359 2 3 3 4 4 4
242 198 243 254 238 220 221 225 241 261 287 317 306 301 294 285 258 252 248 238 232 235 234 238 243 255 266 296 318 328 343 349 347 351 356 355 356 1 2 2 5 6 8 8
243 218 239 93 103 202 223 242 238 258 283 295 299 301 286 273 267 256 238 229 221 224 221 227 228 231 251 273 296 320 336 341 346 346 351 354 357 359 359 2 5 6 9 7
232 239 257 214 185 193 209 218 218 249 280 300 306 275 225 204 251 259 242 222 209 210 210 214 217 222 236 255 275 300 321 330 339 341 345 349 353 354 355 358 2 3 9 7
224 241 232 129 119 173 226 194 106 252 304 306 279 298 37 46 310 242 217 199 194 197 202 208 212 217 235 257 269 284 301 313 326 331 335 341 347 346 347 349 354 357 7 9
231 241 249 105 138 180 213 102 52 326 311 273 268 334 358 352 310 241 198 189 191 198 207 215 213 217 236 253 265 276 279 288 297 306 317 329 336 337 338 344 348 357 5 11
211 222 208 118 168 202 14 20 345 320 306 280 285 313 325 321 301 210 186 185 196 207 213 216 217 225 240 252 259 255 256 266 274 286 296 304 317 324 329 332 337 350 357 8
214 207 77 123 223 330 319 299 309 311 314 288 278 296 319 318 301 204 202 196 204 220 226 222 221 231 246 248 245 242 244 251 261 267 270 277 291 301 309 315 327 341 348 355
227 226 190 168 246 313 302 285 294 296 299 286 282 316 330 338 346 289 222 222 221 229 238 238 232 234 247 255 243 243 247 253 255 258 261 261 266 278 288 299 307 319 331 339
226 195 180 179 113 355 339 335 343 20 28 7 2 12 7 8 10 355 318 260 246 249 258 264 257 250 250 249 248 250 253 254 255 252 258 262 257 259 267 270 284 290 308 318
218 178 187 163 113 12 28 44 44 69 70 57 44 32 29 30 25 14 5 343 291 280 280 283 282 277 270 256 251 256 259 259 257 253 247 250 255 250 223 240 241 243 260 279
158 134 139 138 122 81 89 69 65 69 66 61 51 42 40 39 34 29 22 9 340 319 310 308 305 301 301 284 263 259 261 261 258 254 251 247 249 256 261 231 223 233 239 244
165 156 162 161 142 116 110 100 91 81 71 62 53 48 45 44 40 32 18 3 350 342 339 331 323 319 319 306 283 270 267 263 259 254 252 252 251 250 254 262 259 246 224 222
180 187 163 144 137 128 125 123 106 84 70 62 54 48 43 40 36 27 16 9 13 13 3 352 343 336 332 319 299 284 275 269 263 261 254 251 250 249 250 251 256 259 256 219
161 154 150 148 140 131 124 115 101 83 68 60 52 46 42 40 37 31 24 19 17 14 5 356 347 340 336 327 313 297 285 276 270 266 260 253 248 247 248 248 250 252 252 250
159 163 163 157 145 132 117 103 93 84 73 61 51 45 45 46 42 34 26 21 21 17 9 1 350 343 340 335 322 307 298 291 269 267 264 259 255 252 251 250 250 250 250 243
171 159 156 150 142 133 121 108 95 84 72 62 57 54 49 44 36 28 23 22 25 25 15 3 353 344 346 344 331 316 308 301 293 283 275 268 263 260 257 255 253 253 253 239
146 141 138 135 133 128 120 110 98 86 75 67 63 58 51 42 33 25 24 26 21 13 5 358 348 351 353 350 341 322 317 312 304 296 289 282 272 265 261 258 257 255 252 250
139 136 134 131 128 123 117 110 102 90 76 69 67 61 51 40 29 24 25 32 22 0 348 348 349 354 350 348 342 332 328 321 314 308 301 294 287 281 274 267 263 260 256 251
142 140 138 134 127 120 115 112 106 95 83 70 63 57 48 37 28 23 19 17 9 356 347 345 352 354 350 343 337 339 335 330 324 318 312 305 299 293 287 281 274 268 263 259
145 144 141 138 134 127 120 114 108 100 90 79 66 55 43 32 25 24 28 10 356 352 349 352 354 351 345 339 343 343 339 336 332 327 321 315 310 304 299 295 288 282 275 269
148 147 146 145 142 135 130 125 116 108 97 82 63 46 36 24 12 5 3 359 351 347 346 351 347 343 340 340 344 343 342 340 337 333 328 323 318 313 309 304 300 294 288 281
151 152 151 149 149 150 149 145 139 133 125 100 54 21 5 357 357 355 342 338 340 336 338 342 339 341 338 343 344 344 342 341 338 334 330 326 323 320 316 313 308 304 298 292
158 158 160 163 166 166 163 163 167 173 185 202 272 316 319 324 324 328 329 333 336 331 333 337 340 338 338 342 343 341 339 339 336 331 330 330 327 322 318 315 313 309 304 299
165 168 172 178 177 176 179 185 193 200 214 234 270 299 309 310 310 311 314 322 326 325 327 330 333 333 339 340 338 336 335 334 333 333 332 330 328 327 323 319 314 310 307 303
173 174 177 183 189 195 197 200 208 217 226 240 268 292 302 306 308 313 315 318 323 326 329 329 330 332 332 332 332 332 333 332 332 331 330 329 328 326 326 322 319 315 311 307
Height
1529 1532 1533 1533 1536 1540 1539 1534 1535 1530 1530 1525 1523 1525 1526 1526 1527 1528 1528 1529 1529 1530 1530 1529 1529 1528 1526 1524 1522 1520 1517 1515 1512 1509 1505 1502 1499 1496 1492 1489 1485 1482 1479 1476
1531 1532 1533 1533 1531 1533 1535 1533 1532 1530 1528 1522 1524 1524 1524 1524 1525 1525 1526 1526 1527 1527 1528 1527 1527 1526 1525 1523 1521 1519 1517 1515 1511 1509 1506 1503 1500 1497 1493 1490 1487 1483 1480 1477
1528 1532 1532 1531 1522 1526 1528 1527 1527 1527 1522 1521 1522 1522 1522 1522 1523 1523 1524 1524 1525 1525 1526 1526 1526 1525 1524 1522 1521 1519 1517 1514 1512 1509 1506 1503 1501 1498 1494 1491 1488 1485 1481 1478
1528 1532 1539 1522 1520 1521 1523 1522 1521 1521 1521 1521 1522 1521 1521 1521 1521 1521 1522 1522 1523 1523 1524 1524 1524 1523 1522 1521 1520 1518 1517 1514 1512 1509 1507 1504 1501 1498 1496 1493 1489 1486 1483 1479
1527 1529 1525 1519 1519 1521 1522 1519 1518 1519 1519 1520 1520 1519 1518 1519 1519 1519 1520 1520 1521 1521 1522 1522 1522 1522 1521 1520 1519 1518 1516 1514 1512 1509 1507 1504 1502 1499 1496 1494 1491 1488 1485 1481
1529 1531 1529 1519 1518 1520 1521 1519 1518 1519 1519 1519 1519 1515 1516 1518 1518 1518 1518 1518 1519 1519 1520 1520 1520 1520 1519 1519 1518 1517 1515 1513 1511 1509 1506 1504 1502 1499 1497 1495 1492 1489 1486 1483
1526 1526 1518 1515 1519 1521 1523 1519 1518 1518 1518 1518 1518 1517 1518 1517 1517 1517 1516 1517 1517 1517 1518 1518 1518 1518 1518 1518 1517 1515 1513 1512 1510 1508 1506 1504 1502 1500 1497 1495 1493 1491 1488 1485
1522 1525 1520 1516 1517 1516 1516 1517 1517 1517 1518 1517 1517 1517 1516 1516 1515 1515 1515 1515 1515 1516 1516 1516 1516 1516 1516 1515 1515 1513 1512 1510 1509 1507 1505 1504 1501 1499 1497 1495 1494 1492 1489 1487
1512 1514 1515 1516 1516 1517 1517 1517 1517 1517 1516 1516 1516 1516 1515 1514 1514 1514 1514 1514 1514 1514 1514 1514 1514 1514 1514 1513 1512 1511 1510 1509 1507 1506 1504 1502 1501 1499 1497 1495 1494 1492 1490 1488
1512 1511 1514 1515 1515 1515 1515 1515 1515 1515 1514 1514 1514 1514 1513 1513 1513 1512 1512 1512 1512 1512 1513 1513 1512 1511 1511 1511 1509 1509 1508 1507 1506 1504 1503 1501 1499 1498 1497 1495 1494 1492 1490 1488
1508 1510 1513 1514 1514 1513 1513 1513 1513 1512 1512 1512 1512 1512 1512 1511 1511 1511 1510 1510 1510 1510 1510 1510 1510 1509 1508 1507 1507 1506 1505 1505 1504 1502 1501 1499 1498 1496 1495 1493 1492 1491 1489 1488
1502 1505 1507 1511 1512 1511 1511 1511 1511 1511 1511 1511 1511 1510 1510 1510 1509 1509 1509 1509 1508 1508 1508 1508 1507 1506 1505 1504 1503 1503 1503 1502 1501 1499 1498 1496 1495 1494 1492 1491 1489 1488 1487 1486
1504 1505 1506 1508 1509 1509 1510 1510 1510 1510 1510 1510 1509 1509 1509 1509 1508 1508 1507 1507 1506 1506 1505 1505 1504 1503 1502 1501 1500 1499 1499 1498 1497 1496 1495 1493 1492 1491 1490 1488 1487 1485 1484 1483
1501 1503 1505 1507 1507 1508 1509 1509 1509 1509 1509 1509 1509 1508 1508 1508 1507 1506 1505 1505 1504 1503 1503 1502 1501 1500 1499 1497 1496 1495 1494 1493 1493 1491 1490 1490 1489 1487 1486 1485 1484 1482 1481 1480
1498 1501 1503 1504 1505 1506 1507 1508 1509 1509 1508 1508 1508 1507 1507 1506 1506 1505 1504 1503 1502 1501 1500 1499 1498 1496 1495 1493 1492 1491 1490 1489 1488 1487 1486 1485 1484 1483 1482 1481 1480 1479 1478 1477
1495 1498 1500 1502 1504 1505 1506 1507 1508 1507 1507 1507 1507 1506 1506 1505 1505 1504 1503 1501 1500 1499 1498 1496 1495 1493 1491 1489 1488 1486 1485 1484 1483 1481 1480 1479 1479 1478 1477 1476 1475 1474 1474 1473
1492 1495 1498 1500 1502 1503 1504 1505 1506 1506 1506 1506 1506 1505 1505 1504 1504 1503 1501 1500 1499 1498 1496 1494 1492 1490 1488 1486 1484 1482 1480 1479 1477 1476 1475 1474 1473 1472 1472 1471 1470 1469 1469 1468
1490 1492 1495 1497 1499 1501 1503 1504 1504 1505 1505 1505 1505 1505 1504 1503 1502 1501 1500 1499 1498 1496 1494 1492 1490 1487 1485 1482 1480 1478 1476 1474 1472 1471 1469 1468 1467 1467 1466 1465 1464 1463 1463 1462
1487 1490 1493 1496 1498 1500 1502 1503 1503 1504 1504 1504 1504 1504 1503 1502 1501 1501 1500 1498 1496 1494 1492 1490 1487 1485 1483 1480 1477 1474 1472 1470 1468 1466 1464 1463 1461 1460 1459 1458 1458 1457 1457 1456
1486 1489 1492 1495 1497 1499 1501 1502 1502 1503 1503 1503 1503 1503 1503 1502 1501 1500 1499 1497 1495 1493 1491 1488 1486 1483 1480 1477 1474 1471 1469 1466 1464 1461 1459 1458 1456 1454 1453 1452 1451 1450 1450 1449
1485 1489 1491 1494 1496 1498 1500 1501 1502 1502 1502 1502 1503 1502 1502 1501 1500 1499 1497 1496 1494 1492 1489 1486 1484 1481 1478 1474 1471 1468 1465 1463 1460 1457 1455 1453 1451 1449 1448 1446 1445 1444 1443 1442
1485 1488 1491 1494 1496 1498 1499 1500 1501 1501 1502 1502 1502 1501 1501 1500 1499 1498 1496 1495 1493 1490 1487 1485 1482 1479 1475 1472 1469 1466 1463 1460 1457 1454 1451 1449 1447 1444 1443 1441 1439 1438 1436 1435
1485 1488 1491 1493 1495 1497 1498 1499 1500 1501 1501 1501 1501 1501 1500 1499 1498 1497 1496 1494 1491 1489 1486 1484 1480 1477 1473 1470 1467 1464 1461 1457 1454 1451 1448 1445 1443 1440 1438 1435 1433 1431 1430 1428
1485 1488 1490 1492 1494 1496 1497 1498 1499 1500 1500 1500 1500 1499 1499 1498 1497 1496 1494 1492 1490 1487 1484 1481 1478 1475 1471 1468 1465 1462 1458 1455 1451 1448 1445 1442 1439 1436 1433 1430 1428 1425 1423 1422
1484 1486 1489 1491 1493 1495 1496 1497 1497 1498 1498 1498 1498 1498 1497 1496 1495 1494 1492 1490 1487 1485 1482 1479 1476 1472 1469 1467 1463 1460 1456 1453 1449 1445 1442 1439 1435 1432 1429 1426 1423 1420 1417 1415
1482 1485 1487 1489 1491 1492 1494 1495 1496 1496 1497 1497 1496 1496 1495 1494 1492 1491 1489 1487 1485 1482 1479 1476 1473 1470 1467 1464 1461 1457 1454 1450 1446 1443 1439 1435 1432 1428 1424 1421 1417 1414 1411 1409
1481 1483 1485 1486 1488 1489 1491 1492 1493 1494 1494 1494 1494 1493 1492 1491 1490 1488 1487 1485 1482 1480 1477 1474 1471 1468 1464 1461 1458 1454 1451 1447 1444 1440 1436 1432 1428 1424 1420 1416 1413 1409 1406 1403